カタログに戻る

DELTA 1 DEB

運用中SSO
NORAD 21473·DEBRIS·🇺🇸 United States

打ち上げ Jun 12, 1975 から Vandenberg Space Force Base

Loading…

次のパス (今後24時間)

TLE

最新Source: Space-Track

元期: Sep 14, 2026, 00:50 UTC

1 21473U 75052FH  26257.03531314  .00000429  00000-0  51233-3 0  9990
2 21473  99.9215  89.2698 0239742 103.3141  46.3286 13.61430496745356

AllMySatでDELTA 1 DEBをリアルタイム追跡

Download on the App Store